sat.trackr.live / text

‹ back to catalog

POSAT-2

NORAD 63488 · 2025-009DR

PAYLOAD ACTIVE UNKNOWN

§ Identity

Operator
Country
POR
Launch date
2025-01-14
Launch site
AFWTR
Launch vehicle
Mass (kg)
RCS (m²)

External: N2YO · Heavens-Above · Gunter

§ Orbital elements

Epoch: 2026-09-21T22:42:59.508576Z

Period
95.05 min
Inclination
97.4776°
Eccentricity
0.0006280
Mean motion
15.15006784 rev/d
Perigee alt
516.6 km
Apogee alt
525.3 km
Semi-major
6,899.1 km
B*
4.9336e-4
RAAN
338.3183°
Arg perigee
160.5013°
Mean anomaly
199.6461°
Rev number
8,128

§ Raw data

POSAT-21 63488U 25009DR  26264.94652209  .00009156  00000+0  49336-3 0  99902 63488  97.4776 338.3183 0006280 160.5013 199.6461 15.15006784 81284

JSON: /api/v1/satellites/63488 · /tle

For live sub-satellite position, see the globe view (requires WebGL).

§ Visibility from observer

Set your observer location to see the next 7 days of passes ≥ 10°. The values pass through the URL so the page stays shareable.

No JS? Fill the form by hand. The geolocation button needs JavaScript.